Terug naar catalogus

STARLINK-36857

ActiefCommunicatieVLEO
NORAD 68518·PAYLOAD·🇺🇸 United States

Gelanceerd Mar 30, 2026 vanaf Cape Canaveral Space Force Station

Loading…

Volgende Passages (komende 24 uur)

TLE

VersSource: CelesTrak SupGP

Epoch: Sep 15, 2026, 03:19 UTC

1 68518C 26068L   26258.13868056  .00051407  00000+0  15187-2 0  2588
2 68518  53.1597 324.6398 0000976  77.3417   9.1783 15.34369258    11

Volg STARLINK-36857 in realtime met AllMySat

Download on the App Store